sat.trackr.live / text

‹ back to catalog

2024-205Q

NORAD 61908 · 2024-205Q

PAYLOAD ACTIVE UNKNOWN

§ Identity

Operator
Country
PRC
Launch date
2024-11-11
Launch site
JSC
Launch vehicle
Mass (kg)
RCS (m²)

External: N2YO · Heavens-Above · Gunter

§ Orbital elements

Epoch: 2026-09-22T23:21:13.821696Z

Period
94.85 min
Inclination
97.4049°
Eccentricity
0.0013284
Mean motion
15.18215066 rev/d
Perigee alt
502.1 km
Apogee alt
520.4 km
Semi-major
6,889.4 km
B*
1.7473e-4
RAAN
336.4035°
Arg perigee
79.6775°
Mean anomaly
280.5956°
Rev number
10,316

§ Raw data

2024-205Q1 61908U 24205Q   26265.97307664  .00003515  00000+0  17473-3 0  99982 61908  97.4049 336.4035 0013284  79.6775 280.5956 15.18215066103163

JSON: /api/v1/satellites/61908 · /tle

For live sub-satellite position, see the globe view (requires WebGL).

§ Visibility from observer

Set your observer location to see the next 7 days of passes ≥ 10°. The values pass through the URL so the page stays shareable.

No JS? Fill the form by hand. The geolocation button needs JavaScript.